Tel Aviv, Israel

10:19 AM IDT on July 26, 2017 (GMT +0300)
Ben Gurion

Weather History for LLBG - March, 2014

Change the Weather History Date:

Saturday, March 22, 2014

  Actual Average Record
Temperature  
Mean Temperature 62 °F -  
Max Temperature 74 °F 71 °F 95 °F (2008)
Min Temperature 51 °F 55 °F 48 °F (1998)
Degree Days  
Heating Degree Days 2    
Growing Degree Days 12 (Base 50)    
Moisture  
Dew Point 53 °F    
Average Humidity 72    
Maximum Humidity 94    
Minimum Humidity 52    
Precipitation  
Precipitation 0.00 in - - ()
Sea Level Pressure  
Sea Level Pressure 30.00 in    
Wind  
Wind Speed 4 mph ()    
Max Wind Speed 13 mph    
Max Gust Speed -    
Visibility 6.1 miles    
Events      
Averages and records for this station are not official NWS values.
T = Trace of Precipitation, MM = Missing Value Source: Averaged Metar Reports

Daily Weather History Graph

Daily Weather History Graph

Search for Another Location

Airport or City:

Trip Planner

Search our weather history database for the weather conditions in past years. The results will help you decide how hot, cold, wet, or windy it might be!

Date:

Astronomy

Mar. 22, 2014 Rise Set
Actual Time 5:42 AM IST 5:53 PM IST
Civil Twilight 5:17 AM IST 6:17 PM IST
Nautical Twilight 4:49 AM IST 6:46 PM IST
Astronomical Twilight 4:20 AM IST 7:14 PM IST
Moon 11:34 PM IST (3/22) 9:23 AM IST (3/22)
Length of Visible Light 12h 59m
Length of Day
12h 11m
Waning Gibbous, 68% of the Moon is Illuminated
Mar 22
Waning Gibbous
Mar 24
Last Quarter
Mar 30
New
Apr 7
First Quarter
Apr 15
Full

Hourly Weather History & Observations

Time (IST) Temp. Dew Point Humidity Pressure Visibility Wind Dir Wind Speed Gust Speed Precip Events Conditions
12:20 AM 55.4 °F 51.8 °F 88% 30.04 in - East 4.6 mph - N/A   Clear
12:50 AM 55.4 °F 50.0 °F 82% 30.04 in - East 5.8 mph - N/A   Clear
1:20 AM 55.4 °F 50.0 °F 82% 30.04 in - Variable 3.5 mph - N/A   Clear
1:50 AM 55.4 °F 48.2 °F 77% 30.04 in - Variable 1.2 mph - N/A   Clear
2:00 AM 55 °F 49 °F 74% 30.04 in 6 mi 1.2 mph - -  
2:20 AM 53.6 °F 48.2 °F 82% 30.04 in - Variable 1.2 mph - N/A   Clear
2:50 AM 53.6 °F 48.2 °F 82% 30.01 in 6.2 mi Variable 2.3 mph - N/A   Scattered Clouds
3:20 AM 53.6 °F 48.2 °F 82% 30.01 in 6.2 mi Variable 3.5 mph - N/A   Scattered Clouds
3:50 AM 53.6 °F 46.4 °F 77% 30.01 in - Variable 3.5 mph - N/A   Clear
4:20 AM 53.6 °F 46.4 °F 77% 30.01 in - SE 4.6 mph - N/A   Clear
4:50 AM 51.8 °F 46.4 °F 82% 30.04 in - Variable 3.5 mph - N/A   Clear
5:00 AM 52 °F 46 °F 72% 30.04 in 6 mi 3.5 mph - -  
5:20 AM 51.8 °F 46.4 °F 82% 30.04 in 6.2 mi Variable 3.5 mph - N/A   Mostly Cloudy
5:50 AM 51.8 °F 44.6 °F 76% 30.04 in 6.2 mi East 4.6 mph - N/A   Scattered Clouds
6:05 AM 51.8 °F 44.6 °F 76% 30.04 in 6.2 mi ESE 4.6 mph - N/A   Scattered Clouds
6:20 AM 51.8 °F 44.6 °F 76% 30.04 in 6.2 mi ESE 4.6 mph - N/A   Scattered Clouds
6:35 AM 53.6 °F 44.6 °F 72% 30.04 in 6.2 mi ESE 4.6 mph - N/A   Scattered Clouds
6:50 AM 53.6 °F 44.6 °F 72% 30.04 in 6.2 mi Variable 3.5 mph - N/A   Partly Cloudy
7:20 AM 57.2 °F 46.4 °F 67% 30.04 in 6.2 mi Variable 3.5 mph - N/A   Partly Cloudy
7:50 AM 59.0 °F 46.4 °F 63% 30.04 in - Variable 1.2 mph - N/A   Clear
8:00 AM 58 °F 47 °F 57% 30.05 in 6 mi 1.2 mph - -  
8:20 AM 62.6 °F 48.2 °F 59% 30.04 in - Variable 1.2 mph - N/A   Clear
8:50 AM 66.2 °F 51.8 °F 60% 30.04 in - Variable 1.2 mph - N/A   Clear
9:20 AM 68.0 °F 55.4 °F 64% 30.04 in - Variable 1.2 mph - N/A   Clear
9:50 AM 69.8 °F 55.4 °F 60% 30.04 in - NNW 4.6 mph - N/A   Clear
10:20 AM 71.6 °F 55.4 °F 57% 30.04 in - WNW 5.8 mph - N/A   Clear
10:50 AM 69.8 °F 57.2 °F 64% 30.04 in - West 8.1 mph - N/A   Clear
11:00 AM 71 °F 58 °F 54% 30.04 in 6 mi West 8.1 mph - -  
11:20 AM 71.6 °F 57.2 °F 60% 30.01 in - WNW 6.9 mph - N/A   Clear
11:50 AM 73.4 °F 59.0 °F 61% 30.01 in - West 6.9 mph - N/A   Clear
12:20 PM 73.4 °F 57.2 °F 57% 30.01 in - West 8.1 mph - N/A   Clear
12:50 PM 73.4 °F 59.0 °F 61% 29.98 in - West 6.9 mph - N/A   Clear
1:20 PM 73.4 °F 59.0 °F 61% 29.98 in - WNW 10.4 mph - N/A   Clear
1:50 PM 71.6 °F 59.0 °F 64% 29.98 in - WNW 12.7 mph - N/A   Clear
2:00 PM 72 °F 58 °F 53% 29.98 in 6 mi WNW 12.7 mph - -  
2:20 PM 71.6 °F 55.4 °F 57% 29.98 in - West 12.7 mph - N/A   Clear
2:50 PM 71.6 °F 59.0 °F 64% 29.98 in - WNW 10.4 mph - N/A   Clear
3:20 PM 73.4 °F 55.4 °F 53% 29.95 in - WNW 9.2 mph - N/A   Clear
3:50 PM 73.4 °F 57.2 °F 57% 29.95 in - NW 8.1 mph - N/A   Clear
4:20 PM 71.6 °F 55.4 °F 57% 29.95 in - NNW 8.1 mph - N/A   Clear
4:50 PM 71.6 °F 57.2 °F 60% 29.95 in - WNW 8.1 mph - N/A   Clear
5:00 PM 71 °F 57 °F 52% 29.96 in 6 mi WNW 8.1 mph - -  
5:20 PM 69.8 °F 59.0 °F 68% 29.95 in - WNW 9.2 mph - N/A   Clear
5:50 PM 66.2 °F 57.2 °F 73% 29.95 in - WNW 8.1 mph - N/A   Clear
6:20 PM 66.2 °F 59.0 °F 78% 29.95 in - WNW 6.9 mph - N/A   Clear
6:50 PM 64.4 °F 59.0 °F 83% 29.98 in - West 4.6 mph - N/A   Clear
7:20 PM 64.4 °F 59.0 °F 83% 29.95 in - Variable 3.5 mph - N/A   Clear
7:50 PM 64.4 °F 59.0 °F 83% 29.95 in - Variable 2.3 mph - N/A   Clear
8:00 PM 64 °F 59 °F 80% 29.97 in 6 mi 2.3 mph - -  
8:20 PM 64.4 °F 59.0 °F 83% 29.98 in - Variable 1.2 mph - N/A   Clear
8:50 PM 62.6 °F 59.0 °F 88% 29.95 in - Variable 3.5 mph - N/A   Clear
9:20 PM 60.8 °F 57.2 °F 88% 29.98 in - Variable 3.5 mph - N/A   Clear
9:50 PM 60.8 °F 57.2 °F 88% 29.95 in - Variable 2.3 mph - N/A   Clear
10:20 PM 60.8 °F 59.0 °F 94% 29.95 in - Variable 2.3 mph - N/A   Clear
10:50 PM 60.8 °F 57.2 °F 88% 29.95 in - SSE 6.9 mph - N/A   Clear
11:00 PM 60 °F 57 °F 85% 29.97 in 6 mi SSE 6.9 mph - -  
11:20 PM 60.8 °F 55.4 °F 82% 29.95 in - South 4.6 mph - N/A   Clear
11:50 PM 59.0 °F 55.4 °F 88% 29.95 in - South 4.6 mph - N/A   Clear